Regional Weather Roundup
Issued by NWS Sterling, VA

Home | Current Version | Previous Version | Graphics & Text | Print | Product List | Glossary On
Versions: 1 2 3 4 5 6 7 8 9 10 11 12 13 14 15 16 17 18 19 20 21 22 23 24 25 26 27
000
ASUS41 KLWX 310610
RWRLWX

REGIONAL WEATHER ROUNDUP
NATIONAL WEATHER SERVICE BALTIMORE MD/WASHINGTON DC
200 AM EDT FRI OCT 31 2014

Note: "FAIR" indicates few or no clouds below 12,000 feet
with no significant weather and/or obstructions to visibility.
 TC=TEMPERATURE CELSIUS

 * =Non NWS site. Station does not report precipitation (e.g. rain,
    snow, etc.), thunder, or fog.

DCZ001-MDZ009-015-VAZ040>042-051-053>054-310700-
WASHINGTON METRO

CITY           SKY/WX    TMP DP  RH WIND       PRES   REMARKS
WASHINGTON NAT PTCLDY    49  36  61 N3        30.04S
DULLES         PTCLDY    36  34  92 CALM      30.03F
ANDREWS AFB    CLEAR     41  38  87 CALM      30.02S
FT BELVOIR     CLEAR     38  37  93 CALM      30.04S
QUANTICO       CLEAR     42  37  82 NW6       30.04F
COLLEGE PARK*  CLEAR     43  41  93 CALM      30.02F
LEESBURG*      CLEAR     41  39  93 CALM      30.03S
MANASSAS*      CLEAR     36  36 100 CALM      30.04S
GAITHERSBURG*  CLOUDY    45  39  81 CALM      30.05F

$$

MDZ006>007-011-014-310700-
BALTIMORE METRO

CITY           SKY/WX    TMP DP  RH WIND       PRES   REMARKS
BWI AIRPORT    MOCLDY    47  39  74 CALM      30.02S
MD SCIENCE CTR   N/A     51  38  60 MISG      30.03S
MARTIN STATE   CLOUDY    45  43  93 CALM      30.04S
ANNAPOLIS      CLOUDY    51  40  65 N5        30.02S
FORT MEADE*    CLOUDY    43  39  87 CALM      30.05S

$$

MDZ012-015-019>023-310700-
MARYLAND EASTERN SHORE

CITY           SKY/WX    TMP DP  RH WIND       PRES   REMARKS
OCEAN CITY     CLEAR     43  39  86 N6        30.00F
SALISBURY      CLEAR     47  39  74 N6        30.01F
BAY BRIDGE AP*   N/A     50  39  66 NE6       30.03S
CAMBRIDGE*     CLEAR     43  37  81 N3        30.01F
EASTON*        CLEAR     44  40  88 NE5       30.05F

$$

MDZ017>025-310700-
SOUTHERN MARYLAND

CITY           SKY/WX    TMP DP  RH WIND       PRES   REMARKS
PATUXENT RIVER CLEAR     43  39  86 CALM      30.01F
ST INIGOES     CLEAR     42  37  82 CALM      30.00F
LEONARDTOWN*   CLEAR     39  36  87 CALM      30.03F

$$

MDZ003>005-310700-
NORTH CENTRAL MARYLAND

CITY           SKY/WX    TMP DP  RH WIND       PRES   REMARKS
FREDERICK*     CLOUDY    48  43  81 CALM      30.05F
HAGERSTOWN APT MOCLDY    43  36  76 CALM      30.03S
WESTMINSTER*   CLOUDY    45  39  81 CALM      30.01S

$$

MDZ501>502-310700-
WESTERN MARYLAND

CITY           SKY/WX    TMP DP  RH WIND       PRES   REMARKS
OAKLAND*       CLOUDY    37  34  87 CALM      29.99F
CUMBERLAND*    CLOUDY    46  41  81 CALM      30.07S

$$

VAZ025>031-310700-
SHENANDOAH VALLEY

CITY           SKY/WX    TMP DP  RH WIND       PRES   REMARKS
WINCHESTER*    CLEAR     39  32  75 CALM      30.02F
FRONT ROYAL*   FAIR      37  36  93 S5        30.03S
LURAY*         FAIR      36  36 100 S3        30.04S
NEW MARKET*    FAIR      32  31  96 CALM      30.04S
STAUNTON*      MOCLDY    32  29  90 CALM      30.06S
WAYNESBORO*    CLOUDY    32  31  94 CALM      30.03S

$$

WVZ021-048>050-054>055-310700-
EASTERN WEST VIRGINIA PANHANDLE

CITY           SKY/WX    TMP DP  RH WIND       PRES   REMARKS
MARTINSBURG    CLOUDY    46  39  76 CALM      30.02F
PETERSBURG*    CLOUDY    41  35  78 CALM      30.05S

$$

VAZ036>039-050-310700-
CENTRAL FOOTHILLS

CITY           SKY/WX    TMP DP  RH WIND       PRES   REMARKS
CHARLOTTESVILL MOCLDY    40  35  83 W3        30.04S
CULPEPER*      CLEAR     34  34 100 CALM      30.04S
ORANGE*        CLEAR     36  34  93 CALM      30.05S
GORDONSVILLE*  FAIR      34  33  96 CALM      30.03S
WARRENTON*     FAIR      32  32 100 CALM      30.03S

$$

VAZ055>057-310700-
NORTH AND CENTRAL PIEDMONT

CITY           SKY/WX    TMP DP  RH WIND       PRES   REMARKS
FREDERICKSBRG* CLEAR     38  38 100 CALM      30.03S
STAFFORD*      CLEAR     35  35 100 CALM      30.07S

$$

NCZ024-NYZ072-PAZ021-071-VAZ022-071-310700-
OTHER REGIONAL OBSERVATIONS

CITY           SKY/WX    TMP DP  RH WIND       PRES   REMARKS
NEW YORK CITY  CLEAR     47  35  63 CALM      30.04S
PHILADELPHIA   CLEAR     44  35  70 NW3       30.04S
PITTSBURGH     CLOUDY    45  37  73 CALM      30.01F
ROANOKE        CLEAR     39  34  82 CALM      30.05S
RICHMOND       CLEAR     45  37  73 N5        30.01F
RALEIGH        CLEAR     47  42  83 NE7       29.99F

$$

ANZ530>537-310700-
MARINE OBSERVATIONS

STATION/POSITION TIME  TEMP    WIND        PRES
                       AIR SEA DIR/SP/G
                 (UTC) (F)     (DEG/KT/KT) (MB)
THOMAS PT LIGHT  0600   53 61  360/  7/  7 1017.5F
BALT KEY BRIDGE  0600   51      30/  5/  6 1016.5S
COVE POINT       0600   54      50/  9/ 11 1016.2F
LEWISETTA        0600   55 61   30/  6/  9 1015.6F
SOLOMONS ISLAND  0600      62                N/A
PINEY POINT      0600           30/  6/  7   N/A

$$




USA.gov is the U.S. government's official web portal to all federal, state and local government web resources and services.